�������l�o���
Date,Time,MP-1(��Sv/h),MP-2(��Sv/h),MP-3(��Sv/h),MP-4(��Sv/h),MP-5(��Sv/h),MP-6(��Sv/h),MP-7(��Sv/h),MP-8(��Sv/h),����,����(m/s),���J
2017/10/16,00:00,0.897,1.426,0.925,1.717,1.176,0.498,0.907,0.845,�k�k��,7.4,��
2017/10/16,00:10,0.897,1.427,0.925,1.716,1.175,0.498,0.907,0.843,�k�k��,7.3,��
2017/10/16,00:20,0.900,1.425,0.925,1.715,1.178,0.496,0.908,0.843,�k�k��,6.7,��
2017/10/16,00:30,0.897,1.426,0.930,1.721,1.176,0.497,0.909,0.844,�k�k��,7.0,��
2017/10/16,00:40,0.897,1.426,0.926,1.716,1.176,0.496,0.909,0.846,�k�k��,6.8,��
2017/10/16,00:50,0.895,1.426,0.927,1.719,1.175,0.496,0.908,0.845,�k�k��,6.6,��
2017/10/16,01:00,0.898,1.425,0.926,1.719,1.174,0.498,0.908,0.846,�k�k��,6.8,��
2017/10/16,01:10,0.899,1.427,0.928,1.720,1.177,0.496,0.908,0.845,�k�k��,6.2,��
2017/10/16,01:20,0.896,1.427,0.926,1.718,1.176,0.496,0.909,0.843,�k�k��,5.8,��
2017/10/16,01:30,0.897,1.426,0.925,1.719,1.175,0.496,0.908,0.845,�k�k��,6.2,��
2017/10/16,01:40,0.897,1.428,0.926,1.719,1.177,0.496,0.909,0.843,�k��,6.5,��
2017/10/16,01:50,0.897,1.430,0.925,1.719,1.174,0.496,0.909,0.843,�k��,7.2,��
2017/10/16,02:00,0.896,1.429,0.926,1.719,1.176,0.497,0.909,0.843,�k�k��,6.7,�L
2017/10/16,02:10,0.897,1.427,0.927,1.720,1.178,0.496,0.909,0.846,�k�k��,6.9,�L
2017/10/16,02:20,0.900,1.427,0.927,1.718,1.176,0.497,0.909,0.843,�k�k��,7.4,��
2017/10/16,02:30,0.896,1.428,0.927,1.719,1.176,0.495,0.908,0.844,�k�k��,7.2,��
2017/10/16,02:40,0.898,1.429,0.924,1.720,1.179,0.496,0.909,0.845,�k�k��,7.4,��
2017/10/16,02:50,0.897,1.428,0.926,1.720,1.179,0.496,0.908,0.844,�k�k��,7.2,��
2017/10/16,03:00,0.897,1.428,0.926,1.723,1.180,0.497,0.908,0.844,�k�k��,7.8,��
2017/10/16,03:10,0.897,1.426,0.928,1.719,1.175,0.497,0.908,0.844,�k�k��,7.0,��
2017/10/16,03:20,0.898,1.427,0.926,1.719,1.176,0.495,0.909,0.843,�k�k��,7.5,��
2017/10/16,03:30,0.898,1.426,0.927,1.721,1.177,0.495,0.908,0.844,�k�k��,7.4,��
2017/10/16,03:40,0.896,1.428,0.926,1.721,1.178,0.495,0.910,0.844,�k�k��,8.4,��
2017/10/16,03:50,0.896,1.429,0.925,1.720,1.178,0.496,0.906,0.844,�k�k��,7.6,��
2017/10/16,04:00,0.898,1.427,0.928,1.721,1.174,0.497,0.908,0.845,�k�k��,8.1,��
2017/10/16,04:10,0.896,1.429,0.928,1.722,1.178,0.495,0.908,0.844,�k�k��,9.0,��
2017/10/16,04:20,0.898,1.427,0.929,1.720,1.179,0.497,0.908,0.846,�k�k��,9.1,�L
2017/10/16,04:30,0.896,1.428,0.926,1.724,1.177,0.497,0.909,0.844,�k�k��,8.2,�L
2017/10/16,04:40,0.896,1.429,0.929,1.720,1.176,0.497,0.910,0.845,�k��,7.5,�L
2017/10/16,04:50,0.899,1.428,0.926,1.723,1.178,0.498,0.908,0.845,�k�k��,8.1,�L
2017/10/16,05:00,0.896,1.426,0.927,1.722,1.177,0.497,0.908,0.845,�k�k��,7.8,�L
2017/10/16,05:10,0.898,1.427,0.929,1.721,1.176,0.497,0.908,0.845,�k�k��,7.4,�L
2017/10/16,05:20,0.897,1.427,0.929,1.723,1.176,0.497,0.908,0.844,�k��,7.6,�L
2017/10/16,05:30,0.896,1.429,0.928,1.720,1.177,0.499,0.910,0.846,�k�k��,6.9,�L
2017/10/16,05:40,0.897,1.426,0.930,1.724,1.176,0.498,0.909,0.846,�k�k��,6.7,�L
2017/10/16,05:50,0.897,1.424,0.930,1.724,1.173,0.497,0.909,0.846,�k�k��,7.6,�L
2017/10/16,06:00,0.898,1.424,0.927,1.721,1.174,0.498,0.907,0.844,�k��,7.8,�L
2017/10/16,06:10,0.897,1.426,0.930,1.719,1.175,0.499,0.907,0.845,�k��,7.9,�L
2017/10/16,06:20,0.896,1.424,0.927,1.723,1.173,0.499,0.909,0.845,�k��,7.8,�L
2017/10/16,06:30,0.897,1.425,0.927,1.721,1.173,0.499,0.909,0.844,�k��,8.8,�L
2017/10/16,06:40,0.895,1.423,0.928,1.721,1.173,0.497,0.908,0.846,�k�k��,8.3,�L
2017/10/16,06:50,0.896,1.423,0.927,1.723,1.175,0.497,0.909,0.844,�k�k��,8.2,�L
2017/10/16,07:00,0.895,1.424,0.926,1.720,1.173,0.497,0.909,0.845,�k�k��,8.0,�L
2017/10/16,07:10,0.893,1.421,0.927,1.720,1.170,0.497,0.909,0.843,�k�k��,7.5,��
2017/10/16,07:20,0.896,1.420,0.927,1.721,1.170,0.496,0.908,0.845,�k��,7.5,�L
2017/10/16,07:30,0.895,1.422,0.927,1.721,1.171,0.496,0.910,0.844,�k�k��,6.8,�L
2017/10/16,07:40,0.896,1.420,0.925,1.723,1.170,0.496,0.907,0.846,�k�k��,7.0,�L
2017/10/16,07:50,0.894,1.423,0.926,1.719,1.170,0.494,0.907,0.845,�k�k��,8.3,�L
2017/10/16,08:00,0.895,1.422,0.925,1.720,1.171,0.494,0.907,0.843,�k�k��,7.3,�L
2017/10/16,08:10,0.895,1.422,0.923,1.719,1.171,0.495,0.908,0.845,�k�k��,6.1,�L
2017/10/16,08:20,0.894,1.422,0.928,1.721,1.173,0.495,0.908,0.844,�k�k��,7.0,�L
2017/10/16,08:30,0.893,1.424,0.926,1.719,1.173,0.496,0.907,0.846,�k�k��,6.7,�L
2017/10/16,08:40,0.896,1.422,0.927,1.720,1.172,0.496,0.906,0.843,�k�k��,7.3,�L
2017/10/16,08:50,0.895,1.423,0.926,1.722,1.172,0.497,0.908,0.844,�k�k��,7.2,�L
2017/10/16,09:00,0.894,1.423,0.927,1.721,1.171,0.495,0.907,0.844,�k�k��,6.6,�L
2017/10/16,09:10,0.895,1.422,0.928,1.722,1.173,0.496,0.908,0.844,�k�k��,7.4,�L
2017/10/16,09:20,0.899,1.424,0.927,1.723,1.174,0.496,0.908,0.845,�k�k��,7.4,�L
2017/10/16,09:30,0.901,1.422,0.928,1.722,1.175,0.496,0.909,0.844,�k�k��,7.5,�L
2017/10/16,09:40,0.902,1.421,0.929,1.721,1.175,0.497,0.906,0.845,�k�k��,6.4,�L
2017/10/16,09:50,0.897,1.424,0.927,1.723,1.174,0.497,0.908,0.844,�k�k��,5.8,�L
2017/10/16,10:00,0.894,1.424,0.926,1.724,1.175,0.496,0.907,0.847,�k�k��,7.4,�L
2017/10/16,10:10,0.894,1.423,0.917,1.721,1.175,0.496,0.906,0.845,�k�k��,7.8,�L
2017/10/16,10:20,0.893,1.421,0.920,1.725,1.174,0.496,0.907,0.846,�k�k��,7.3,�L
2017/10/16,10:30,0.896,1.420,0.925,1.723,1.172,0.496,0.908,0.846,�k��,7.2,�L
2017/10/16,10:40,0.896,1.420,0.929,1.721,1.176,0.494,0.907,0.847,�k�k��,3.9,�L
2017/10/16,10:50,0.896,1.422,0.927,1.724,1.175,0.496,0.906,0.844,�k�k��,4.1,�L
2017/10/16,11:00,0.895,1.424,0.928,1.720,1.175,0.496,0.906,0.846,�k�k��,6.3,�L
2017/10/16,11:10,0.893,1.424,0.926,1.723,1.176,0.498,0.909,0.845,�k�k��,6.1,�L
2017/10/16,11:20,0.896,1.427,0.929,1.722,1.175,0.497,0.907,0.847,�k��,5.7,�L
2017/10/16,11:30,0.894,1.425,0.928,1.723,1.175,0.496,0.910,0.846,�k�k��,6.2,�L
2017/10/16,11:40,0.897,1.425,0.929,1.721,1.174,0.496,0.907,0.845,�k��,6.1,�L
2017/10/16,11:50,0.896,1.422,0.929,1.723,1.174,0.497,0.909,0.846,�k��,5.7,�L
2017/10/16,12:00,0.899,1.425,0.931,1.723,1.177,0.498,0.909,0.846,�k��,5.3,�L
2017/10/16,12:10,0.897,1.427,0.931,1.723,1.175,0.497,0.909,0.846,�k�k��,4.8,�L
2017/10/16,12:20,0.895,1.425,0.930,1.724,1.176,0.497,0.909,0.848,�k��,5.5,�L
2017/10/16,12:30,0.897,1.427,0.928,1.726,1.175,0.499,0.910,0.846,�k�k��,5.8,�L
2017/10/16,12:40,0.898,1.426,0.928,1.726,1.172,0.498,0.910,0.847,�k�k��,5.4,�L
2017/10/16,12:50,0.895,1.425,0.929,1.725,1.177,0.498,0.909,0.846,�k��,5.3,�L
2017/10/16,13:00,0.896,1.426,0.928,1.723,1.173,0.497,0.909,0.844,�k��,5.5,�L
2017/10/16,13:10,0.900,1.425,0.929,1.727,1.175,0.497,0.911,0.845,�k��,5.4,�L
2017/10/16,13:20,0.896,1.426,0.929,1.723,1.174,0.497,0.908,0.847,�k��,5.0,�L
2017/10/16,13:30,0.896,1.423,0.926,1.726,1.173,0.498,0.909,0.845,�k��,5.0,�L
2017/10/16,13:40,0.896,1.419,0.931,1.722,1.172,0.499,0.907,0.844,�k��,5.4,�L
2017/10/16,13:50,0.896,1.419,0.930,1.722,1.173,0.500,0.907,0.845,�k��,5.2,�L
2017/10/16,14:00,0.894,1.421,0.929,1.727,1.170,0.499,0.908,0.847,�k��,5.5,�L
2017/10/16,14:10,0.898,1.417,0.929,1.721,1.171,0.497,0.907,0.846,�k��,5.4,�L
2017/10/16,14:20,0.896,1.421,0.928,1.723,1.172,0.497,0.906,0.845,�k��,4.7,�L
2017/10/16,14:30,0.897,1.420,0.928,1.721,1.172,0.498,0.907,0.845,�k��,4.5,�L
2017/10/16,14:40,0.895,1.419,0.926,1.721,1.171,0.497,0.907,0.843,�k��,5.0,�L
2017/10/16,14:50,0.895,1.419,0.926,1.722,1.169,0.497,0.906,0.845,�k��,5.9,�L
2017/10/16,15:00,0.895,1.420,0.927,1.721,1.170,0.496,0.909,0.844,�k��,5.0,�L
2017/10/16,15:10,0.893,1.420,0.926,1.720,1.169,0.498,0.908,0.845,�k��,4.0,�L
2017/10/16,15:20,0.894,1.417,0.927,1.718,1.169,0.497,0.904,0.843,�k��,4.2,�L
2017/10/16,15:30,0.892,1.418,0.925,1.717,1.167,0.496,0.906,0.842,�k��,4.6,�L
2017/10/16,15:40,0.891,1.414,0.923,1.714,1.166,0.495,0.905,0.844,�k��,4.1,�L
2017/10/16,15:50,0.887,1.407,0.921,1.712,1.161,0.497,0.903,0.843,�k��,3.8,�L
2017/10/16,16:00,0.888,1.407,0.920,1.709,1.157,0.495,0.903,0.841,�k��,4.1,�L
2017/10/16,16:10,0.884,1.404,0.921,1.709,1.158,0.496,0.903,0.840,�k��,3.5,�L
2017/10/16,16:20,0.883,1.400,0.917,1.704,1.154,0.496,0.900,0.839,�k��,2.5,�L
2017/10/16,16:30,0.884,1.399,0.918,1.702,1.153,0.495,0.900,0.839,�k��,3.1,�L
2017/10/16,16:40,0.885,1.395,0.914,1.700,1.151,0.493,0.897,0.838,���k��,3.5,�L
2017/10/16,16:50,0.883,1.394,0.916,1.697,1.151,0.493,0.897,0.838,���k��,3.6,�L
2017/10/16,17:00,0.881,1.393,0.911,1.695,1.151,0.493,0.898,0.836,���k��,3.0,�L
2017/10/16,17:10,0.883,1.392,0.913,1.693,1.147,0.492,0.896,0.836,��,2.3,�L
2017/10/16,17:20,0.881,1.389,0.910,1.684,1.144,0.492,0.896,0.836,���쐼,2.2,�L
2017/10/16,17:30,0.880,1.386,0.909,1.687,1.145,0.492,0.895,0.835,���쐼,2.3,�L
2017/10/16,17:40,0.880,1.383,0.909,1.685,1.145,0.492,0.894,0.836,�쐼,2.8,�L
2017/10/16,17:50,0.881,1.382,0.908,1.681,1.140,0.491,0.894,0.833,�쐼,3.2,�L
2017/10/16,18:00,0.880,1.380,0.907,1.679,1.142,0.494,0.894,0.835,�쐼,2.9,�L
2017/10/16,18:10,0.877,1.382,0.908,1.679,1.139,0.489,0.892,0.834,�쐼,3.2,�L
2017/10/16,18:20,0.879,1.381,0.907,1.675,1.138,0.490,0.892,0.832,��쐼,2.8,�L
2017/10/16,18:30,0.879,1.381,0.910,1.678,1.138,0.491,0.892,0.834,�쐼,3.0,�L
2017/10/16,18:40,0.880,1.379,0.909,1.672,1.138,0.491,0.892,0.833,�쐼,2.3,�L
2017/10/16,18:50,0.881,1.382,0.907,1.672,1.139,0.492,0.892,0.835,��쐼,1.9,�L
2017/10/16,19:00,0.885,1.384,0.907,1.672,1.138,0.493,0.891,0.833,�쐼,2.6,�L
2017/10/16,19:10,0.884,1.387,0.909,1.676,1.139,0.493,0.891,0.835,�쐼,2.9,�L
2017/10/16,19:20,0.886,1.387,0.908,1.679,1.142,0.492,0.893,0.834,��,2.0,�L
2017/10/16,19:30,0.886,1.389,0.907,1.677,1.141,0.491,0.893,0.835,��,1.5,�L
2017/10/16,19:40,0.881,1.389,0.907,1.676,1.142,0.491,0.893,0.835,�k��,2.5,�L
2017/10/16,19:50,0.884,1.391,0.908,1.679,1.139,0.492,0.891,0.835,�k�k��,3.1,�L
2017/10/16,20:00,0.883,1.388,0.908,1.677,1.140,0.494,0.894,0.834,�k��,2.6,�L
2017/10/16,20:10,0.887,1.387,0.909,1.673,1.141,0.493,0.894,0.834,�k��,3.3,�L
2017/10/16,20:20,0.885,1.388,0.908,1.674,1.141,0.493,0.891,0.836,���쐼,2.0,�L
2017/10/16,20:30,0.885,1.388,0.907,1.676,1.142,0.493,0.895,0.834,�쐼,2.9,�L
2017/10/16,20:40,0.883,1.389,0.910,1.675,1.140,0.492,0.894,0.836,���쐼,3.0,�L
2017/10/16,20:50,0.883,1.387,0.909,1.676,1.144,0.493,0.893,0.834,��쐼,1.4,�L
2017/10/16,21:00,0.884,1.390,0.908,1.678,1.143,0.492,0.894,0.835,��,0.9,�L
2017/10/16,21:10,0.884,1.390,0.909,1.679,1.146,0.491,0.893,0.834,��,0.9,�L
2017/10/16,21:20,0.884,1.392,0.908,1.680,1.142,0.492,0.895,0.833,-,CALM,�L
2017/10/16,21:30,0.884,1.394,0.909,1.679,1.144,0.494,0.897,0.834,-,CALM,�L
2017/10/16,21:40,0.884,1.392,0.910,1.678,1.144,0.492,0.895,0.834,-,CALM,�L
2017/10/16,21:50,0.886,1.392,0.908,1.679,1.147,0.491,0.895,0.835,��쓌,0.8,��
2017/10/16,22:00,0.885,1.392,0.908,1.678,1.145,0.492,0.895,0.834,��쓌,0.9,��
2017/10/16,22:10,0.887,1.391,0.910,1.682,1.145,0.492,0.895,0.837,��쐼,0.6,��
2017/10/16,22:20,0.885,1.393,0.909,1.680,1.144,0.491,0.896,0.833,���k��,0.9,�L
2017/10/16,22:30,0.886,1.394,0.910,1.681,1.147,0.491,0.895,0.835,�k��,2.6,�L
2017/10/16,22:40,0.885,1.395,0.911,1.682,1.149,0.492,0.896,0.834,�k��,2.2,�L
2017/10/16,22:50,0.887,1.396,0.909,1.684,1.145,0.492,0.896,0.835,�k��,1.9,�L
2017/10/16,23:00,0.887,1.394,0.912,1.683,1.145,0.492,0.894,0.835,�k��,3.3,�L
2017/10/16,23:10,0.886,1.391,0.910,1.681,1.146,0.493,0.895,0.834,�k��,3.4,�L
2017/10/16,23:20,0.885,1.391,0.908,1.681,1.145,0.494,0.894,0.835,�k��,3.8,�L
2017/10/16,23:30,0.885,1.391,0.913,1.682,1.145,0.493,0.897,0.836,�k��,1.2,�L
2017/10/16,23:40,0.887,1.392,0.910,1.679,1.148,0.494,0.894,0.835,�k��,1.5,�L
2017/10/16,23:50,0.885,1.392,0.912,1.679,1.147,0.494,0.894,0.833,�k�k��,3.9,�L
